Le nostre stazioni meteo in Italia

Pubblicità
Il mio iltempo24.it
Piacenza, Italia (16084): Temperatura & dewpoint: 07.11.2019 01:00:00 - 13.11.2019 01:00:00 (CET)Piacenza, Italia (16084): velocità del vento: 07.11.2019 01:00:00 - 13.11.2019 01:00:00 (CET)Piacenza, Italia (16084): direzione del vento: 07.11.2019 01:00:00 - 13.11.2019 01:00:00 (CET)Piacenza, Italia (16084): reduced air pressure: 07.11.2019 01:00:00 - 13.11.2019 01:00:00 (CET)Piacenza, Italia (16084): visibility: 07.11.2019 01:00:00 - 13.11.2019 01:00:00 (CET)Piacenza, Italia (16084): ore di luce: 07.11.2019 01:00:00 - 13.11.2019 01:00:00 (CET)
Data & Tempo tt [°C] td [°C] ff [km/h] ff [kn] dd ppp [hPa] vv [km] sd [min]
13.11.2019 01:00:00 - - - - - - - -
13.11.2019 00:00:00 - - - - - - - -
12.11.2019 23:00:00 - - - - - - - -
12.11.2019 22:00:00 - - - - - - - -
12.11.2019 21:00:00 - - - - - - - -
12.11.2019 20:00:00 - - - - - - - -
12.11.2019 19:00:00 9,8 9,8 4 2 SSE 997,7 6 0
12.11.2019 18:00:00 10,0 10,0 - - - - 7 -
12.11.2019 17:00:00 10,0 10,0 - - - - 7 -
12.11.2019 16:00:00 9,4 9,4 5 3 SO 998,9 6 0
12.11.2019 15:00:00 9,0 9,0 - - - - 2,7 -
12.11.2019 14:00:00 9,0 9,0 - - - - 3,2 -
12.11.2019 13:00:00 9,0 9,0 11 6 ONO 1001,8 4,5 0
12.11.2019 12:00:00 8,0 8,0 - - - - 10 -
12.11.2019 11:00:00 8,0 8,0 - - - - 6 -
12.11.2019 10:00:00 8,0 8,0 9 5 ONO 1004,3 2,8 0
12.11.2019 09:00:00 8,0 8,0 - - - - 2,8 -
12.11.2019 08:00:00 8,0 8,0 - - - - 4,0 -
12.11.2019 07:00:00 8,2 8,2 0 0 N 1004,9 6 0
12.11.2019 06:00:00 - - - - - - - -
12.11.2019 05:00:00 - - - - - - - -
12.11.2019 04:00:00 - - - - - - - -
12.11.2019 03:00:00 - - - - - - - -
12.11.2019 02:00:00 - - - - - - - -
12.11.2019 01:00:00 - - - - - - - -
12.11.2019 00:00:00 - - - - - - - -
11.11.2019 23:00:00 - - - - - - - -
11.11.2019 22:00:00 - - - - - - - -
11.11.2019 21:00:00 - - - - - - - -
11.11.2019 20:00:00 - - - - - - - -
11.11.2019 19:00:00 8,6 8,6 5 3 NNE 1010,7 1,2 0
11.11.2019 18:00:00 9,0 9,0 - - - - 1,0 -
11.11.2019 17:00:00 9,0 9,0 4 2 N - 1,0 -
11.11.2019 16:00:00 8,6 8,6 0 0 N 1011,7 1,2 0
11.11.2019 15:00:00 9,0 9,0 5 3 ESE - 1,2 -
11.11.2019 14:00:00 9,0 9,0 2 1 OSO - 1,2 -
11.11.2019 13:00:00 8,4 8,4 4 2 ONO 1012,9 1,0 0
11.11.2019 12:00:00 8,0 8,0 5 3 NNO - 0,8 -
11.11.2019 11:00:00 8,0 8,0 9 5 NNO - 0,8 -
11.11.2019 10:00:00 8,2 8,2 8 4 NNO 1014,7 0,8 0
11.11.2019 09:00:00 8,0 8,0 4 2 NNO - 1,0 -
11.11.2019 08:00:00 8,0 8,0 2 1 ONO - 1,0 -
11.11.2019 07:00:00 8,0 8,0 4 2 ONO 1014,4 1,2 0
11.11.2019 06:00:00 - - - - - - - -
11.11.2019 05:00:00 - - - - - - - -
11.11.2019 04:00:00 - - - - - - - -
11.11.2019 03:00:00 - - - - - - - -
11.11.2019 02:00:00 - - - - - - - -
11.11.2019 01:00:00 - - - - - - - -
11.11.2019 00:00:00 - - - - - - - -
10.11.2019 23:00:00 - - - - - - - -
10.11.2019 22:00:00 - - - - - - - -
10.11.2019 21:00:00 - - - - - - - -
10.11.2019 20:00:00 - - - - - - - -
10.11.2019 19:00:00 8,2 8,2 0 0 N 1012,0 2,5 0
10.11.2019 18:00:00 9,0 9,0 - - - - 2,5 -
10.11.2019 17:00:00 9,0 9,0 - - - - 3,5 -
10.11.2019 16:00:00 10,4 9,8 0 0 N 1010,3 4,5 6
10.11.2019 15:00:00 11,0 10,0 - - - - 3,0 -
10.11.2019 14:00:00 10,0 10,0 - - - - 2,5 -
10.11.2019 13:00:00 10,4 9,8 0 0 N 1009,8 3,0 42
10.11.2019 12:00:00 9,0 9,0 - - - - 3,0 -
10.11.2019 11:00:00 8,0 8,0 - - - - 5 -
10.11.2019 10:00:00 7,4 7,4 0 0 N 1009,5 5 0
10.11.2019 09:00:00 6,0 6,0 - - - - 8 -
10.11.2019 08:00:00 5,0 5,0 0 0 N - 8 -
10.11.2019 07:00:00 5,6 5,6 0 0 N 1008,7 7 0
10.11.2019 06:00:00 - - - - - - - -
10.11.2019 05:00:00 - - - - - - - -
10.11.2019 04:00:00 - - - - - - - -
10.11.2019 03:00:00 - - - - - - - -
10.11.2019 02:00:00 - - - - - - - -
10.11.2019 01:00:00 - - - - - - - -
10.11.2019 00:00:00 - - - - - - - -
09.11.2019 23:00:00 - - - - - - - -
09.11.2019 22:00:00 - - - - - - - -
09.11.2019 21:00:00 - - - - - - - -
09.11.2019 20:00:00 - - - - - - - -
09.11.2019 19:00:00 10,2 10,2 0 0 N 1009,1 10 0
09.11.2019 18:00:00 10,0 10,0 - - - - 10 -
09.11.2019 17:00:00 11,0 11,0 - - - - 10 -
09.11.2019 16:00:00 12,4 11,0 0 0 N 1008,2 10 6
09.11.2019 15:00:00 12,0 10,0 - - - - 10 -
09.11.2019 14:00:00 13,0 9,0 - - - - 10 -
09.11.2019 13:00:00 12,0 10,1 0 0 N 1008,6 10 60
09.11.2019 12:00:00 11,0 10,0 0 0 N - 10 -
09.11.2019 11:00:00 10,0 8,0 0 0 N - 10 -
09.11.2019 10:00:00 8,4 8,4 0 0 N 1008,9 20 30
09.11.2019 09:00:00 7,0 7,0 0 0 N - 10 -
09.11.2019 08:00:00 7,0 7,0 0 0 N - 10 -
09.11.2019 07:00:00 7,6 7,6 0 0 N 1007,5 20 0
09.11.2019 06:00:00 - - - - - - - -
09.11.2019 05:00:00 - - - - - - - -
09.11.2019 04:00:00 - - - - - - - -
09.11.2019 03:00:00 - - - - - - - -
09.11.2019 02:00:00 - - - - - - - -
09.11.2019 01:00:00 - - - - - - - -
09.11.2019 00:00:00 - - - - - - - -
08.11.2019 23:00:00 - - - - - - - -
08.11.2019 22:00:00 - - - - - - - -
08.11.2019 21:00:00 - - - - - - - -
08.11.2019 20:00:00 - - - - - - - -
08.11.2019 19:00:00 11,0 11,0 4 2 SSE 1003,3 10 0
08.11.2019 18:00:00 12,0 12,0 5 3 SSE - 10 -
08.11.2019 17:00:00 12,0 12,0 9 5 E - 10 -
08.11.2019 16:00:00 12,4 12,4 9 5 ENE 1001,8 10 0
08.11.2019 15:00:00 12,0 12,0 13 7 E - 10 -
08.11.2019 14:00:00 13,0 13,0 15 8 ENE - 10 -
08.11.2019 13:00:00 13,2 11,6 8 4 E 1001,0 20 36
08.11.2019 12:00:00 12,0 12,0 2 1 ESE - 10 -
08.11.2019 11:00:00 11,0 11,0 - - - - 6 -
08.11.2019 10:00:00 11,0 11,0 0 0 N 1001,4 6 0
08.11.2019 09:00:00 11,0 11,0 - - - - 8 -
08.11.2019 08:00:00 11,0 11,0 - - - - 8 -
08.11.2019 07:00:00 10,6 10,6 0 0 N 1001,1 2,4 0
08.11.2019 06:00:00 - - - - - - - -
08.11.2019 05:00:00 - - - - - - - -
08.11.2019 04:00:00 - - - - - - - -
08.11.2019 03:00:00 - - - - - - - -
08.11.2019 02:00:00 - - - - - - - -
08.11.2019 01:00:00 - - - - - - - -
08.11.2019 00:00:00 - - - - - - - -
07.11.2019 23:00:00 - - - - - - - -
07.11.2019 22:00:00 - - - - - - - -
07.11.2019 21:00:00 - - - - - - - -
07.11.2019 20:00:00 - - - - - - - -
07.11.2019 19:00:00 10,4 10,4 4 2 ESE 1006,6 4,5 0
07.11.2019 18:00:00 10,0 10,0 2 1 SE - 5 -
07.11.2019 17:00:00 10,0 10,0 2 1 SSE - 5 -
07.11.2019 16:00:00 10,0 10,0 5 3 O 1007,2 5 0
07.11.2019 15:00:00 10,0 10,0 5 3 ONO - 6 -
07.11.2019 14:00:00 10,0 10,0 8 4 NNO - 6 -
07.11.2019 13:00:00 10,2 10,2 8 4 NO 1007,1 8 6
07.11.2019 12:00:00 10,0 10,0 5 3 N - 10 -
07.11.2019 11:00:00 9,0 9,0 8 4 ENE - 10 -
07.11.2019 10:00:00 7,6 7,6 5 3 E 1007,8 20 0
07.11.2019 09:00:00 7,0 7,0 0 0 N - 10 -
07.11.2019 08:00:00 6,0 6,0 8 4 O - 10 -
07.11.2019 07:00:00 5,2 5,2 5 3 SO 1007,0 18 0
07.11.2019 06:00:00 - - - - - - - -
07.11.2019 05:00:00 - - - - - - - -
07.11.2019 04:00:00 - - - - - - - -
07.11.2019 03:00:00 - - - - - - - -
07.11.2019 02:00:00 - - - - - - - -
07.11.2019 01:00:00 - - - - - - - -

tt = Temperatura
td = dewpoint
ff = velocità del vento
dd = direzione del vento
ppp = reduced air pressure
vv = visibility
sd = ore di luce

Stazioni seguenti

WeatherPro
AMSI
MeteoEarth